Stations météo

Publicité
Calvi, France (7754): Température de l'air & dewpoint: 20.06.2017 07:00:00 - 26.06.2017 07:00:00 (CEST)Calvi, France (7754): Température de l'air 5cm: 20.06.2017 07:00:00 - 26.06.2017 07:00:00 (CEST)Calvi, France (7754): Vitesse du vent & gusts: 20.06.2017 07:00:00 - 26.06.2017 07:00:00 (CEST)Calvi, France (7754): Direction du vent: 20.06.2017 07:00:00 - 26.06.2017 07:00:00 (CEST)Calvi, France (7754): reduced air pressure: 20.06.2017 07:00:00 - 26.06.2017 07:00:00 (CEST)Calvi, France (7754): visibility: 20.06.2017 07:00:00 - 26.06.2017 07:00:00 (CEST)Calvi, France (7754): Ensoleillement: 20.06.2017 07:00:00 - 26.06.2017 07:00:00 (CEST)Calvi, France (7754): Quantités de précipitations: 20.06.2017 07:00:00 - 26.06.2017 07:00:00 (CEST)
Date & Time tt [°C] td [°C] tt 5cm [°C] ff [km/h] ff [knt] fx [km/h] fx [knt] dd ppp [hPa] vv [km] sd [min] rr [mm]
26.06.2017 07:00:00 22,3 7,3 - 4 2 13 7 SSW 1012,6 18 - 0,0
26.06.2017 06:00:00 20,7 5,9 19,7 9 5 18 10 S 1012,1 60 0 0,0
26.06.2017 05:00:00 22,2 8,0 21,7 15 8 24 13 SSE 1011,9 60 0 0,0
26.06.2017 04:00:00 26,0 11,0 23,6 17 9 30 16 S 1012,0 60 0 0,0
26.06.2017 03:00:00 25,6 12,1 24,6 17 9 32 17 S 1012,2 60 0 -
26.06.2017 02:00:00 25,9 10,5 24,7 14 8 26 14 S 1012,8 60 0 -
26.06.2017 01:00:00 25,7 11,1 24,3 13 7 23 13 S 1013,6 60 0 0,0
26.06.2017 00:00:00 25,8 10,8 24,9 11 6 22 12 SSW 1013,5 60 0 0,0
25.06.2017 23:00:00 26,1 14,9 25,5 13 7 31 17 S 1013,2 60 0 0,0
25.06.2017 22:00:00 27,2 12,4 26,1 13 7 31 17 SSW 1012,6 55 0 0,0
25.06.2017 21:00:00 26,9 16,8 26,8 22 12 39 21 SSW 1011,4 49 21 0,0
25.06.2017 20:00:00 29,8 15,5 31,2 22 12 40 22 SSW 1011,3 42 60 0,0
25.06.2017 19:00:00 31,9 15,8 33,9 24 13 44 24 SSW 1011,1 40 60 0,0
25.06.2017 18:00:00 32,1 17,2 35,0 29 16 45 25 SSW 1011,4 40 60 0,0
25.06.2017 17:00:00 32,0 18,6 35,4 29 15 49 26 SSW 1012,0 40 60 0,0
25.06.2017 16:00:00 31,9 19,2 35,6 29 16 47 25 SSW 1012,5 40 60 0,0
25.06.2017 15:00:00 33,6 17,7 34,7 23 12 50 27 SW 1012,8 20 56 0,0
25.06.2017 14:00:00 31,6 17,1 32,0 32 18 54 29 SSW 1013,1 60 7 0,0
25.06.2017 13:00:00 33,4 15,4 34,7 19 10 45 25 SW 1013,0 40 13 0,0
25.06.2017 12:00:00 32,6 15,1 34,1 29 15 48 26 SSW 1012,9 40 56 0,0
25.06.2017 11:00:00 31,9 14,1 32,7 25 14 42 23 SW 1013,9 40 58 0,0
25.06.2017 10:00:00 31,9 13,6 32,7 19 11 39 21 SW 1013,5 40 60 0,0
25.06.2017 09:00:00 31,2 13,0 29,0 9 5 29 16 SSW 1013,6 40 60 0,0
25.06.2017 08:00:00 27,8 14,8 27,2 18 10 31 17 S 1013,5 40 60 -
25.06.2017 07:00:00 26,4 14,2 24,7 13 7 32 17 S 1013,9 44 26 0,0
25.06.2017 06:00:00 25,1 13,9 23,1 13 7 27 15 S 1014,3 50 0 0,0
25.06.2017 05:00:00 24,7 15,6 22,7 7 4 22 12 SSE 1014,7 31 0 -
25.06.2017 04:00:00 26,0 16,8 25,2 19 10 29 15 S 1015,0 46 0 0,0
25.06.2017 03:00:00 25,6 15,3 25,1 13 7 27 15 SSW 1015,7 58 0 0,0
25.06.2017 02:00:00 25,6 17,3 24,1 17 9 24 13 SW 1016,0 45 0 0,0
25.06.2017 01:00:00 25,5 17,7 25,0 0 0 27 15 N 1016,2 30 0 0,0
25.06.2017 00:00:00 26,3 19,2 26,0 19 10 27 15 S 1016,3 20 0 0,0
24.06.2017 23:00:00 26,6 19,5 26,2 11 6 23 12 SW 1016,1 27 0 0,0
24.06.2017 22:00:00 26,8 19,4 26,5 9 5 22 12 WSW 1015,3 28 0 0,0
24.06.2017 21:00:00 27,9 19,7 28,0 20 11 37 20 SSW 1014,7 29 0 0,0
24.06.2017 20:00:00 28,7 19,9 29,5 16 9 44 24 S 1014,6 20 0 0,0
24.06.2017 19:00:00 29,7 19,4 31,0 21 12 41 22 S 1014,5 30 52 0,0
24.06.2017 18:00:00 33,0 19,8 36,3 25 14 40 21 S 1014,6 30 60 0,0
24.06.2017 17:00:00 33,5 19,9 39,4 11 6 29 15 N 1014,4 30 60 0,0
24.06.2017 16:00:00 33,9 19,2 40,2 9 5 24 13 E 1014,8 30 60 0,0
24.06.2017 15:00:00 34,4 19,2 39,1 13 7 35 19 ESE 1015,4 20 60 0,0
24.06.2017 14:00:00 33,4 20,9 36,2 16 9 31 17 NE 1015,6 19 60 0,0
24.06.2017 13:00:00 31,8 21,3 36,6 20 11 27 14 N 1016,0 20 60 0,0
24.06.2017 12:00:00 30,6 21,1 33,8 15 8 24 13 N 1016,4 20 60 0,0
24.06.2017 11:00:00 29,2 20,6 31,5 12 7 22 12 N 1016,9 25 60 0,0
24.06.2017 10:00:00 28,0 19,8 29,5 12 6 23 13 N 1017,1 56 60 0,0
24.06.2017 09:00:00 27,3 19,6 28,5 12 7 22 12 NNW 1017,2 57 60 0,0
24.06.2017 08:00:00 26,6 19,2 26,3 13 7 24 13 NNW 1017,1 33 60 0,0
24.06.2017 07:00:00 25,0 17,7 23,5 3 2 9 5 N 1016,9 30 10 0,0
24.06.2017 06:00:00 24,0 17,3 23,4 4 2 21 11 WSW 1016,5 38 0 0,0
24.06.2017 05:00:00 27,9 16,8 26,0 11 6 29 16 SW 1016,5 37 0 0,0
24.06.2017 04:00:00 26,4 16,9 26,2 20 11 37 20 S 1017,1 43 0 0,0
24.06.2017 03:00:00 26,9 17,1 24,8 18 10 28 15 S 1017,4 46 0 0,0
24.06.2017 02:00:00 25,4 19,3 23,4 22 12 39 21 S 1017,4 40 0 0,0
24.06.2017 01:00:00 24,4 18,8 23,9 2 1 33 18 NNW 1018,3 54 0 0,0
24.06.2017 00:00:00 25,1 18,8 24,7 6 4 19 11 SW 1018,1 48 0 0,0
23.06.2017 23:00:00 25,2 19,3 24,9 4 2 22 12 E 1018,1 48 0 -
23.06.2017 22:00:00 26,3 18,7 25,9 6 3 22 12 NW 1017,7 52 0 0,0
23.06.2017 21:00:00 27,8 16,7 27,7 13 7 26 14 WSW 1017,0 58 1 0,0
23.06.2017 20:00:00 29,8 14,7 30,6 13 7 27 15 SSE 1016,7 60 34 0,0
23.06.2017 19:00:00 32,6 13,3 34,3 11 6 31 17 SSW 1016,2 40 60 0,0
23.06.2017 18:00:00 33,1 13,2 35,5 10 6 41 22 SSW 1016,5 40 58 0,0
23.06.2017 17:00:00 34,0 9,9 35,6 22 12 39 21 SW 1016,9 35 56 -
23.06.2017 16:00:00 33,3 10,0 36,6 19 10 38 21 SW 1017,3 35 60 0,0
23.06.2017 15:00:00 34,2 11,4 36,1 17 9 44 24 SSW 1017,7 19 60 0,0
23.06.2017 14:00:00 32,3 13,0 35,8 23 13 43 23 WSW 1017,9 45 60 0,0
23.06.2017 13:00:00 33,5 12,5 37,2 16 9 31 17 WSW 1018,2 45 60 0,0
23.06.2017 12:00:00 32,8 13,4 34,1 19 10 32 17 SW 1018,6 45 60 0,0
23.06.2017 11:00:00 31,4 10,1 33,7 20 11 34 18 SW 1019,0 45 60 0,0
23.06.2017 10:00:00 31,5 10,8 32,4 17 9 30 16 SW 1019,2 20 60 0,0
23.06.2017 09:00:00 30,4 11,9 30,0 9 5 22 12 SSW 1018,9 39 60 0,0
23.06.2017 08:00:00 28,2 12,5 24,4 8 5 16 9 S 1018,5 45 60 0,0
23.06.2017 07:00:00 22,9 14,2 20,4 5 3 19 11 SW 1018,8 35 35 0,0
23.06.2017 06:00:00 20,6 14,5 18,0 14 7 19 10 SSE 1018,4 48 0 0,0
23.06.2017 05:00:00 18,6 13,5 17,9 6 3 16 9 SW 1018,5 40 0 0,0
23.06.2017 04:00:00 21,1 15,6 19,3 10 5 13 7 SSE 1018,3 41 0 0,0
23.06.2017 03:00:00 20,7 14,6 19,9 4 2 11 6 S 1018,7 46 0 0,0
23.06.2017 02:00:00 21,4 16,1 20,9 8 5 13 7 S 1018,7 54 0 0,0
23.06.2017 01:00:00 22,1 16,1 21,9 10 6 18 10 S 1019,3 55 0 0,0
23.06.2017 00:00:00 22,2 16,2 21,5 9 5 13 7 S 1019,4 49 0 0,0
22.06.2017 23:00:00 22,5 16,8 22,4 8 5 11 6 S 1019,3 40 0 -
22.06.2017 22:00:00 24,0 18,0 23,5 4 2 12 6 SSW 1018,8 41 0 0,0
22.06.2017 21:00:00 25,2 18,6 25,4 9 5 17 9 ENE 1018,4 58 2 0,0
22.06.2017 20:00:00 27,5 16,8 29,4 6 4 21 12 ENE 1018,1 60 60 0,0
22.06.2017 19:00:00 28,0 18,7 31,7 15 8 30 16 NNE 1018,1 35 60 0,0
22.06.2017 18:00:00 28,5 18,3 32,9 22 12 33 18 N 1017,8 35 60 0,0
22.06.2017 17:00:00 28,4 19,9 34,3 21 11 29 16 N 1017,9 35 60 0,0
22.06.2017 16:00:00 28,5 19,4 34,6 19 10 30 16 N 1018,1 35 60 0,0
22.06.2017 15:00:00 28,0 19,0 34,1 18 10 29 16 NNW 1018,3 45 60 0,0
22.06.2017 14:00:00 28,5 17,7 32,6 18 10 29 16 NNW 1018,6 45 60 0,0
22.06.2017 13:00:00 28,0 18,1 33,1 18 10 29 16 NNW 1018,6 45 60 0,0
22.06.2017 12:00:00 27,6 18,0 31,4 17 9 29 15 NNW 1018,4 45 60 0,0
22.06.2017 11:00:00 26,9 18,2 30,4 16 8 23 13 N 1018,3 45 60 0,0
22.06.2017 10:00:00 27,2 17,7 29,0 13 7 19 11 NNW 1018,3 45 60 0,0
22.06.2017 09:00:00 26,3 17,4 28,3 9 5 13 7 NNW 1018,4 45 60 0,0
22.06.2017 08:00:00 25,4 15,1 21,8 2 1 8 4 NE 1018,0 40 60 0,0
22.06.2017 07:00:00 20,5 14,4 18,4 7 4 14 7 S 1018,0 40 37 0,0
22.06.2017 06:00:00 18,5 13,6 17,4 9 5 14 8 SSW 1017,8 33 0 0,0
22.06.2017 05:00:00 17,8 13,5 17,4 8 4 10 5 S 1017,6 10 0 0,0
22.06.2017 04:00:00 18,8 13,9 18,1 4 2 11 6 SE 1017,5 39 0 -
22.06.2017 03:00:00 19,2 14,0 18,1 7 4 14 8 S 1017,4 40 0 0,0
22.06.2017 02:00:00 18,6 14,3 18,1 5 3 11 6 S 1017,5 35 0 -
22.06.2017 01:00:00 20,2 14,6 19,8 9 5 16 9 S 1017,2 35 0 0,0
22.06.2017 00:00:00 20,7 15,3 19,8 11 6 15 8 S 1017,6 35 0 0,0
21.06.2017 23:00:00 21,1 16,1 20,8 6 3 9 5 S 1017,4 37 0 0,0
21.06.2017 22:00:00 22,4 16,9 21,8 7 4 8 4 SSW 1017,0 36 0 0,0
21.06.2017 21:00:00 24,4 17,6 24,4 5 3 11 6 N 1016,7 55 0 0,0
21.06.2017 20:00:00 25,6 17,8 26,9 8 4 16 9 N 1016,0 58 0 0,0
21.06.2017 19:00:00 26,9 17,1 29,7 8 4 18 10 NNW 1015,6 40 60 0,0
21.06.2017 18:00:00 27,4 18,4 32,2 14 8 25 13 N 1016,2 60 60 0,0
21.06.2017 17:00:00 27,3 18,6 33,3 18 10 28 15 N 1016,8 20 60 0,0
21.06.2017 16:00:00 27,7 17,8 34,1 19 10 27 14 N 1016,6 60 60 0,0
21.06.2017 15:00:00 27,3 18,9 32,9 19 10 29 16 N 1016,8 40 60 0,0
21.06.2017 14:00:00 27,9 18,0 32,2 22 12 34 18 N 1017,2 40 60 0,0
21.06.2017 13:00:00 27,8 15,8 32,8 23 13 31 17 N 1017,4 50 60 0,0
21.06.2017 12:00:00 27,6 15,9 31,2 18 10 29 16 N 1017,4 50 60 0,0
21.06.2017 11:00:00 27,1 16,4 29,7 18 10 27 15 N 1017,3 60 60 0,0
21.06.2017 10:00:00 26,4 16,6 29,2 16 9 22 12 N 1017,3 50 60 0,0
21.06.2017 09:00:00 26,4 13,2 27,9 9 5 16 9 N 1017,1 50 60 0,0
21.06.2017 08:00:00 24,8 13,0 21,0 2 1 9 5 S 1017,0 50 60 0,0
21.06.2017 07:00:00 19,2 10,7 15,9 9 5 14 8 S 1017,1 45 41 0,0
21.06.2017 06:00:00 16,3 9,5 15,8 4 2 14 8 SSE 1017,1 20 0 0,0
21.06.2017 05:00:00 17,1 9,8 16,2 6 3 17 9 S 1017,2 60 0 0,0
21.06.2017 04:00:00 17,5 9,9 16,6 8 5 15 8 S 1017,7 60 0 0,0
21.06.2017 03:00:00 17,6 10,5 16,7 10 5 14 8 SSE 1017,9 60 0 0,0
21.06.2017 02:00:00 17,9 11,0 17,1 5 3 13 7 SSE 1018,1 60 0 0,0
21.06.2017 01:00:00 18,5 11,3 17,6 6 3 11 6 S 1018,3 60 0 0,0
21.06.2017 00:00:00 19,3 12,1 18,6 6 3 10 6 S 1018,2 60 0 0,0
20.06.2017 23:00:00 20,4 12,9 20,1 6 3 13 7 S 1018,4 60 0 0,0
20.06.2017 22:00:00 21,4 13,8 21,2 5 3 10 5 S 1018,4 60 0 -
20.06.2017 21:00:00 24,1 15,3 24,0 3 2 12 7 NW 1018,0 60 21 0,0
20.06.2017 20:00:00 25,6 15,3 28,1 11 6 22 12 NNE 1018,1 55 60 0,0
20.06.2017 19:00:00 27,0 15,1 30,5 17 9 23 13 NNE 1017,8 50 60 0,0
20.06.2017 18:00:00 27,4 15,1 32,5 18 10 31 17 NNE 1018,3 50 60 0,0
20.06.2017 17:00:00 28,0 15,3 33,3 23 13 35 19 N 1018,7 50 60 0,0
20.06.2017 16:00:00 28,3 13,4 33,7 19 10 40 22 N 1019,1 60 60 0,0
20.06.2017 15:00:00 29,0 15,5 33,9 24 13 40 21 NNE 1019,5 60 60 0,0
20.06.2017 14:00:00 29,7 18,5 33,9 20 11 39 21 NNE 1019,6 50 60 0,0
20.06.2017 13:00:00 28,9 19,5 33,6 20 11 33 18 N 1019,5 50 60 0,0
20.06.2017 12:00:00 28,7 20,2 31,9 17 9 31 17 N 1019,6 50 60 0,0
20.06.2017 11:00:00 28,0 18,7 31,0 14 7 21 12 N 1019,5 60 60 0,0
20.06.2017 10:00:00 27,3 19,1 29,3 12 7 23 13 NNE 1019,8 40 60 0,0
20.06.2017 09:00:00 26,5 17,8 27,1 3 2 8 4 ENE 1019,9 50 60 -
20.06.2017 08:00:00 24,4 18,1 22,1 4 2 8 4 ENE 1020,0 59 60 0,0
20.06.2017 07:00:00 20,2 14,8 17,2 6 4 13 7 SSE 1019,8 45 42 0,0

tt = Température de l'air
td = dewpoint
tt 5cm = Température de l'air 5cm
ff = Vitesse du vent
fx = gusts
dd = Direction du vent
ppp = reduced air pressure
vv = visibility
sd = Ensoleillement
rr = Quantités de précipitations

stations d'obs. à proximité